Regional Weather Roundup
Issued by NWS

Home | Current Version | Previous Version | Text Only | Print | Product List | Glossary On
Versions: 1 2 3 4 5 6 7 8 9 10 11 12 13 14 15 16 17 18 19 20 21 22 23 24 25 26 27 28 29 30 31 32 33 34 35 36 37 38 39 40 41 42 43 44 45 46 47 48 49 50
000
ASUS45 KBOU 141610
RWRCO

WEATHER ROUNDUP FOR COLORADO
NATIONAL WEATHER SERVICE DENVER/BOULDER CO
1000 AM MDT MON JUL 14 2014

NOTE: "FAIR" INDICATES FEW OR NO CLOUDS BELOW 12000 FEET WITH NO
SIGNIFICANT WEATHER AND/OR OBSTRUCTIONS TO VISIBILITY.

COZ001>005-013-030-031-141700-
...NORTHWEST COLORADO...

CITY           SKY/WX    TMP DP  RH WIND       PRES   REMARKS
CRAIG          SUNNY     71  53  52 NE9       30.34F
HAYDEN         SUNNY     72  46  40 E7        30.37S
MEEKER         SUNNY     74  45  35 CALM      30.34F
MOUNT WERNER   NOT AVBL
STEAMBOAT SPGS SUNNY     68  50  52 CALM      30.39F
WALDEN         SUNNY     63  45  51 CALM      30.49F
$$

COZ006>008-011-141700-
...WEST CENTRAL VALLEYS...

CITY           SKY/WX    TMP DP  RH WIND       PRES   REMARKS
GRAND JUNCTION PTSUNNY   82  47  29 S6        30.22F
MONTROSE       PTSUNNY   82  50  32 E7        30.30F
EAGLE          MOSUNNY   70  50  49 CALM      30.40F
RIFLE          SUNNY     78  48  34 CALM      30.27F
DELTA          PTSUNNY   82  47  29 E5        30.26F
NUCLA          PTSUNNY   77  45  31 CALM      30.37S
$$

COZ017>023-064>068-141700-
...SOUTHWEST COLORADO...

CITY           SKY/WX    TMP DP  RH WIND       PRES   REMARKS
DURANGO        MOSUNNY   72  53  51 VRB3      30.38S
CORTEZ         SUNNY     75  52  44 S3        30.33F
PAGOSA SPRINGS MOSUNNY   69  52  54 CALM      30.46S
TELLURIDE      PTSUNNY   66  46  48 CALM      30.55S
WOLF CREEK PAS NOT AVBL
$$

COZ009-010-012-014-032>034-037-058>063-141700-
...CENTRAL COLORADO...

CITY           SKY/WX    TMP DP  RH WIND       PRES   REMARKS
ASPEN          MOSUNNY   72  42  34 N5        30.43F
BUENA VISTA    MOSUNNY   68  51  53 SE5       30.47F
COPPER MTN     MOSUNNY   59  36  41 W5G18     30.77S
BERTHOUD PASS  FAIR      46  32  57 MISG      30.82R
COTTONWOOD PAS MOSUNNY   64  52  63 SE6       30.61F
GUNNISON       PTSUNNY   66  48  52 CALM      30.49F
KREMMLING      SUNNY     66  46  48 CALM      30.46F
LEADVILLE      SUNNY     60  47  61 CALM      30.59F
MONARCH PASS   PTSUNNY   52  46  82 SW8       30.87R
SALIDA         MOSUNNY  N/A N/A N/A CALM      30.51F
SUNLIGHT       SUNNY     64  41  42 CALM      30.69S
WILKERSON PASS CLOUDY    54  48  82 CALM      30.74S
$$

COZ069>075-141700-
...SAN LUIS VALLEY/SANGRE DE CRISTO MOUNTAINS...

CITY           SKY/WX    TMP DP  RH WIND       PRES   REMARKS
ALAMOSA        PTSUNNY   69  49  48 NE7       30.45F
LA VETA PASS   PTSUNNY   57  48  72 W3        30.63S
SAGUACHE       NOT AVBL
$$

COZ035-036-038>040-141700-
...NORTHERN COLORADO FRONT RANGE...

CITY           SKY/WX    TMP DP  RH WIND       PRES   REMARKS
DENVER INTL AP MOSUNNY   77  52  41 N10       30.32S
DMNS CITY PARK   N/A     77  47  34 N3G10     30.32S
AURORA         MOSUNNY   73  54  50 N7        30.35S
FRONT RANGE AP MOSUNNY   75  57  53 N8        30.34S
ERIE MUNI ARPT SUNNY     78  46  32 N6        30.30F
BOULDER MUN AP SUNNY     77  46  33 NE6       30.31F
CENTENNIAL     MOSUNNY   75  48  38 N12       30.35F
BROOMFIELD     MOSUNNY   79  45  29 NW9       30.34F
FORT COLLINS   SUNNY     79  52  38 NE7       30.31S
LONGMONT       SUNNY     80  50  34 NE7       30.32S
$$

COZ041-046-047-076>085-087-088-141700-
...PIKES PEAK/PALMER DIVIDE AND SOUTHERN FOOTHILLS...

CITY           SKY/WX    TMP DP  RH WIND       PRES   REMARKS
COLO. SPRINGS  PTSUNNY   77  56  48 N15       30.35S
A. F. ACADEMY  SUNNY     73  56  55 N12       30.37F
ELLICOTT       SUNNY     78  53  41 NE18      30.32
FALCON         SUNNY     73  54  50 N13       30.41S
FORT CARSON    SUNNY     79  57  47 N12       30.31F
LIMON          SUNNY     75  58  55 N14       30.30S
MONUMENT HILL  SUNNY     70  52  52 N12       30.42S
TRINIDAD       PTSUNNY   74  57  55 NE6       30.32S
$$

COZ042>045-048>051-090-091-141700-
...NORTHEAST COLORADO...

CITY           SKY/WX    TMP DP  RH WIND       PRES   REMARKS
GREELEY ARPT   NOT AVBL
AKRON          SUNNY     71  58  63 NE13      30.29R
BURLINGTON     SUNNY     76  62  62 N16G24    30.23R
WRAY           SUNNY     75  60  59 NE12      30.23S
STERLING       MOSUNNY   73  61  64 NE7       30.26S
HOLYOKE        SUNNY     77  59  53 NE10      30.25R
FORT MORGAN    SUNNY     74  55  51 NE14      30.30S
$$

COZ086-089-092>099-141700-
...SOUTHEAST COLORADO...

CITY           SKY/WX    TMP DP  RH WIND       PRES   REMARKS
PUEBLO         MOSUNNY   79  64  60 SW7       30.23F
LA JUNTA       SUNNY     78  64  61 CALM      30.21F
LAMAR          SUNNY     78  63  59 CALM      30.17S
SPRINGFIELD      N/A     79  62  56 N7        30.22S
$$



USA.gov is the U.S. government's official web portal to all federal, state and local government web resources and services.